[[{"header":{"parameterUnit":"m.s-1","parameterCategory":1,"la1":30.2991,"la2":30.254,"lo1":-89.0895,"lo2":-89.0444,"dy":0.0017,"dx":0.0017,"nx":28,"ny":28,"refTime":"2023-04-02T21:00:00:Z","depth":0,"parameterNumber":2,"parameterNumberName":"U-component_of_WINDS"},"data":[0,0,0,0,0,0,0,0,0,0,0,0,0,0,0,0,0,0,0,0,0,0,0,0,0,0,0,0,0,0,0,0,0,0,0,0,0,0,0,0,0,0,0,0,0,0,0,0,0,0,0,0,0,0,0,0,0,0,-0.793,-0.793,0,-0.7906,-0.7906,-0.7906,-0.791,-0.791,-0.7911,-0.7911,-0.7884,-0.7883,-0.7882,0,0,0,0,0,0,0,0,0,0,0,0,0,-0.7975,-0.7975,-0.793,-0.793,-0.7929,-0.7906,-0.7906,-0.7906,-0.791,-0.791,-0.7911,-0.7911,-0.7884,-0.7883,-0.7882,0,0,0,0,0,0,0,0,0,0,0,0,0,-0.7954,-0.7974,-0.793,-0.7929,-0.7928,-0.7907,-0.7906,-0.7906,-0.791,-0.791,-0.7911,-0.7912,-0.7885,-0.7883,-0.7881,-0.7858,0,0,-0.7876,-0.7876,0,0,0,0,0,0,0,0,-0.7955,-0.7952,-0.7929,-0.7929,-0.7928,-0.7912,-0.7912,-0.789,-0.791,-0.7917,-0.7911,-0.7912,-0.7892,-0.789,-0.7884,-0.7857,-0.7856,-0.7876,-0.7875,-0.7874,-0.7874,0,0,0,0,0,0,0,-0.7957,-0.7953,-0.7921,-0.7929,-0.7928,-0.7928,-0.7926,-0.7908,-0.7901,-0.7916,-0.7916,-0.7914,-0.7892,-0.7886,-0.7884,-0.7856,-0.7876,-0.7875,-0.7874,-0.7873,-0.7808,-0.7807,0,0,0,0,0,0,-0.7959,-0.7955,-0.7921,-0.792,-0.7944,-0.7927,-0.7924,-0.7916,-0.7901,-0.79,-0.7913,-0.7914,-0.7888,-0.7886,-0.7883,-0.7855,-0.7874,-0.7873,-0.7872,-0.7809,-0.7808,-0.7807,0,0,0,0,0,0,-0.796,-0.7956,-0.7922,-0.7937,-0.7933,-0.7926,-0.7917,-0.7916,-0.7909,-0.7899,-0.7898,-0.7908,-0.7889,-0.7885,-0.7865,-0.7854,-0.7872,-0.7871,-0.7809,-0.7808,-0.7807,-0.7798,0,0,0,0,0,0,-0.7961,-0.7956,-0.7948,-0.7937,-0.7932,-0.7905,-0.7916,-0.7915,-0.7907,-0.7908,-0.7894,-0.7892,-0.7889,-0.7867,-0.7863,-0.7852,-0.7869,-0.781,-0.7809,-0.7808,-0.7799,-0.7797,-0.7795,0,0,0,0,0,-0.7963,-0.7946,-0.7948,-0.7944,-0.7922,-0.7905,-0.7902,-0.7899,-0.7906,-0.7897,-0.7891,-0.7893,-0.7856,-0.7865,-0.786,-0.7848,-0.7811,-0.7809,-0.7808,-0.78,-0.7797,-0.7795,0,0,0,0,0,0,-0.7955,-0.7945,-0.7946,-0.7926,-0.7916,-0.7906,-0.7895,-0.7896,-0.7884,-0.7885,-0.7881,-0.7878,-0.7857,-0.7851,-0.7861,-0.7825,-0.7834,-0.7831,-0.783,-0.7827,-0.7825,-0.7827,-0.7868,0,0,0,0,0,-0.7951,-0.7939,-0.793,-0.7912,-0.7908,-0.7902,-0.7894,-0.7893,-0.7883,-0.7878,-0.7871,-0.7859,-0.7845,-0.7836,-0.7822,-0.7799,-0.7795,-0.7788,-0.7786,-0.7784,-0.7782,-0.7768,-0.7765,-0.7802,-0.7802,-0.7802,0,0,-0.7942,-0.7935,-0.7928,-0.7911,-0.7903,-0.789,-0.7898,-0.7884,-0.7873,-0.7876,-0.7856,-0.785,-0.7837,-0.7815,-0.7805,-0.7809,-0.7771,-0.7782,-0.7781,-0.7779,-0.7766,-0.7763,-0.7759,-0.78,-0.7801,-0.7801,0,0,-0.792,-0.7913,-0.7898,-0.7891,-0.7879,-0.7876,-0.7872,-0.7861,-0.7857,-0.7838,-0.7839,-0.7826,-0.7802,-0.7793,-0.7785,-0.7759,-0.776,-0.7755,-0.7742,-0.7729,-0.7726,-0.7724,-0.7714,-0.7711,-0.7752,-0.7752,-0.7752,0,-0.791,-0.7891,-0.789,-0.7875,-0.7867,-0.787,-0.7854,-0.7846,-0.7831,-0.7825,-0.783,-0.78,-0.7791,-0.7767,-0.776,-0.7754,-0.7749,-0.7756,-0.7727,-0.7724,-0.7722,-0.7713,-0.7709,-0.7752,-0.7752,-0.7752,-0.7752,0,-0.7879,-0.7866,-0.7855,-0.7841,-0.7832,-0.7816,-0.7812,-0.7802,-0.7802,-0.7798,-0.7777,-0.7767,-0.7752,-0.7746,-0.7745,-0.7721,-0.7724,-0.7728,-0.7737,-0.7718,-0.7709,-0.7705,-0.7751,-0.7751,-0.7751,-0.7751,0,0,-0.7851,-0.7837,-0.7833,-0.7826,-0.7814,-0.7803,-0.7788,-0.7773,-0.7765,-0.7754,-0.7741,-0.772,-0.7724,-0.7715,-0.7713,-0.7702,-0.7681,-0.7707,-0.7707,-0.7702,-0.7654,-0.765,-0.7646,-0.7682,-0.7681,-0.7681,-0.7655,0,-0.7827,-0.7801,-0.7799,-0.7774,-0.7761,-0.7764,-0.775,-0.774,-0.7736,-0.7723,-0.7717,-0.7703,-0.7709,-0.7704,-0.7693,-0.7686,-0.7671,-0.7688,-0.7668,-0.7668,-0.7671,-0.7642,-0.7638,-0.7614,-0.7651,-0.765,-0.765,0,-0.7796,-0.7785,-0.7759,-0.7749,-0.7743,-0.7731,-0.7718,-0.7706,-0.7695,-0.7692,-0.7683,-0.7682,-0.7665,-0.7675,-0.7651,-0.7662,-0.7654,-0.765,-0.7649,-0.7646,-0.7657,-0.7638,-0.7606,-0.7602,-0.7645,-0.7645,-0.7645,0,-0.7777,-0.7756,-0.7738,-0.7733,-0.772,-0.7711,-0.7705,-0.7695,-0.7687,-0.7674,-0.7669,-0.7654,-0.7647,-0.7635,-0.763,-0.7638,-0.7606,-0.7616,-0.7603,-0.7603,-0.7596,-0.7596,-0.7562,-0.7591,-0.7591,-0.7591,-0.7591,0,-0.775,-0.7735,-0.773,-0.7719,-0.7701,-0.7698,-0.768,-0.7675,-0.7666,-0.7653,-0.7653,-0.7641,-0.7636,-0.7623,-0.7619,-0.7599,-0.7596,-0.7592,-0.7591,-0.7592,-0.7593,-0.7586,-0.7588,-0.759,-0.7591,-0.7591,-0.7591,0,-0.7727,-0.7723,-0.7703,-0.7693,-0.769,-0.7677,-0.7668,-0.7657,-0.7653,-0.7636,-0.7632,-0.7625,-0.7609,-0.7604,-0.7584,-0.7582,-0.7559,-0.7559,-0.7563,-0.7562,-0.755,-0.7551,-0.751,-0.7504,-0.7537,-0.7537,-0.7537,0,-0.771,-0.7698,-0.7687,-0.7679,-0.7673,-0.7659,-0.7651,-0.7648,-0.7639,-0.7625,-0.7615,-0.76,-0.7588,-0.7562,-0.7554,-0.754,-0.754,-0.7526,-0.7537,-0.7538,-0.7539,-0.754,-0.7538,-0.7524,-0.7524,-0.7523,-0.7523,0,-0.768,-0.7679,-0.7667,-0.7654,-0.7644,-0.7634,-0.7624,-0.7617,-0.7612,-0.7602,-0.7586,-0.7577,-0.7557,-0.7542,-0.7527,-0.7519,-0.752,-0.752,-0.7516,-0.7516,-0.7519,-0.7517,-0.7557,-0.7521,-0.7521,-0.7521,-0.7521,-0.7521,-0.7659,-0.7649,-0.7639,-0.7626,-0.7618,-0.7608,-0.7597,-0.7592,-0.7579,-0.7564,-0.7562,-0.7545,-0.7534,-0.7514,-0.7506,-0.7492,-0.7496,-0.749,-0.7489,-0.7487,-0.7486,-0.7521,-0.7489,-0.7489,-0.7489,-0.7489,-0.749,0,-0.763,-0.7624,-0.7611,-0.7598,-0.7587,-0.7589,-0.7578,-0.7569,-0.7554,-0.7544,-0.7532,-0.7514,-0.7499,-0.749,-0.7474,-0.7465,-0.7465,-0.7461,-0.7461,-0.746,-0.7484,-0.7489,-0.7461,-0.7461,-0.7461,-0.7461,-0.7461,-0.7461,-0.7613,-0.7595,-0.7592,-0.757,-0.7564,-0.7548,-0.7542,-0.7532,-0.7524,-0.7504,-0.7492,-0.7487,-0.7477,-0.7461,-0.7447,-0.7444,-0.7439,-0.7434,-0.7432,-0.7455,-0.7458,-0.7461,-0.7465,-0.7433,-0.7433,-0.7409,-0.7409,-0.7409]},{"header":{"parameterUnit":"m.s-1","parameterCategory":1,"la1":30.2991,"la2":30.254,"lo1":-89.0895,"lo2":-89.0444,"dy":0.0017,"dx":0.0017,"nx":28,"ny":28,"refTime":"2023-04-02T21:00:00:Z","depth":0,"parameterNumber":3,"parameterNumberName":"V-component_of_WINDS"},"data":[0,0,0,0,0,0,0,0,0,0,0,0,0,0,0,0,0,0,0,0,0,0,0,0,0,0,0,0,0,0,0,0,0,0,0,0,0,0,0,0,0,0,0,0,0,0,0,0,0,0,0,0,0,0,0,0,0,0,4.1471,4.1473,0,4.1673,4.1675,4.1678,4.1744,4.1743,4.1742,4.1741,4.1947,4.1953,4.1959,0,0,0,0,0,0,0,0,0,0,0,0,0,4.1141,4.1147,4.147,4.1473,4.1476,4.1673,4.1675,4.1678,4.1744,4.1743,4.1742,4.1741,4.1945,4.1952,4.196,0,0,0,0,0,0,0,0,0,0,0,0,0,4.1308,4.1149,4.147,4.1532,4.154,4.1672,4.1675,4.1679,4.1744,4.1743,4.1742,4.174,4.1942,4.1951,4.1961,4.2045,0,0,4.1989,4.1994,0,0,0,0,0,0,0,0,4.1298,4.132,4.1521,4.1528,4.1537,4.1682,4.1635,4.1802,4.1745,4.1667,4.1741,4.174,4.186,4.1876,4.1916,4.2055,4.2064,4.199,4.1996,4.2,4.2003,0,0,0,0,0,0,0,4.1286,4.1311,4.1551,4.1523,4.1533,4.155,4.1572,4.1667,4.1768,4.1673,4.1679,4.1702,4.1864,4.1907,4.1922,4.2067,4.199,4.1998,4.2004,4.2008,4.2287,4.2288,0,0,0,0,0,0,4.1265,4.1301,4.1544,4.1557,4.1412,4.1557,4.1582,4.1637,4.1767,4.1786,4.1703,4.1704,4.1892,4.1911,4.1929,4.2038,4.2,4.2009,4.2014,4.2285,4.2287,4.2289,0,0,0,0,0,0,4.1257,4.1286,4.1536,4.1431,4.1464,4.1564,4.1625,4.1641,4.1685,4.1789,4.1808,4.1728,4.1891,4.1916,4.2017,4.2046,4.2013,4.2022,4.2283,4.2286,4.2288,4.2256,0,0,0,0,0,0,4.1247,4.1283,4.1316,4.1431,4.1469,4.162,4.1627,4.1646,4.1701,4.1705,4.1818,4.1836,4.1892,4.2002,4.2026,4.2059,4.2029,4.2281,4.2284,4.2287,4.2255,4.2257,4.2259,0,0,0,0,0,4.1236,4.1298,4.1317,4.1346,4.1513,4.1621,4.1643,4.1707,4.1703,4.1738,4.1805,4.1832,4.2039,4.2012,4.2039,4.2075,4.2279,4.2283,4.2287,4.2254,4.2257,4.2259,0,0,0,0,0,0,4.1182,4.1314,4.1337,4.1438,4.1518,4.1632,4.1677,4.1708,4.179,4.179,4.1866,4.1891,4.1986,4.2041,4.2008,4.2165,4.2161,4.217,4.2126,4.2129,4.2132,4.2117,4.2037,0,0,0,0,0,4.1182,4.126,4.1371,4.1449,4.1489,4.1576,4.1626,4.1668,4.1754,4.1788,4.1863,4.1945,4.2029,4.2082,4.2165,4.2263,4.2289,4.2301,4.2304,4.2305,4.2312,4.237,4.2377,4.2302,4.2302,4.2302,0,0,4.1183,4.1265,4.1309,4.1441,4.1508,4.1587,4.1604,4.1686,4.1746,4.1801,4.1901,4.1958,4.2055,4.2155,4.2203,4.2203,4.2339,4.231,4.231,4.2317,4.2375,4.2382,4.2388,4.2305,4.2304,4.2304,0,0,4.1226,4.1295,4.1369,4.1436,4.1538,4.1596,4.1614,4.1724,4.1765,4.1867,4.191,4.1982,4.2124,4.2191,4.2244,4.2314,4.2343,4.2339,4.235,4.2405,4.2411,4.2417,4.2443,4.2451,4.2346,4.2346,4.2346,0,4.1214,4.1335,4.1403,4.1484,4.1541,4.1595,4.1671,4.1733,4.1856,4.1895,4.1894,4.2075,4.2143,4.2261,4.2278,4.2319,4.2342,4.2326,4.2405,4.2411,4.2418,4.2443,4.2453,4.2345,4.2345,4.2345,4.2345,0,4.1316,4.1399,4.1447,4.1566,4.1628,4.1706,4.1786,4.1841,4.1879,4.1937,4.204,4.2125,4.2227,4.2258,4.2294,4.2381,4.2379,4.239,4.2387,4.2423,4.2448,4.2458,4.2343,4.2344,4.2344,4.2344,0,0,4.1329,4.1486,4.1503,4.1558,4.1675,4.1741,4.1822,4.1922,4.1968,4.2052,4.2122,4.2242,4.2254,4.2314,4.2359,4.2408,4.2459,4.2414,4.2418,4.242,4.2561,4.2552,4.2562,4.2479,4.2481,4.2483,4.2554,0,4.1387,4.1534,4.1599,4.1717,4.1795,4.1849,4.192,4.1999,4.2056,4.2131,4.2193,4.2278,4.2287,4.2324,4.2374,4.2442,4.2489,4.2438,4.2545,4.2548,4.252,4.2576,4.2566,4.2629,4.2564,4.2566,4.2567,0,4.1474,4.156,4.1685,4.1795,4.1831,4.1893,4.1991,4.2062,4.2153,4.2191,4.2259,4.2303,4.239,4.2381,4.2503,4.2467,4.2515,4.2555,4.2559,4.2572,4.256,4.2591,4.265,4.2659,4.2583,4.2582,4.2581,0,4.1473,4.1619,4.1714,4.176,4.1889,4.1932,4.1988,4.2079,4.2135,4.2221,4.2259,4.2353,4.2404,4.2476,4.2544,4.2531,4.266,4.2656,4.2694,4.2693,4.2719,4.2717,4.2788,4.2749,4.2749,4.2748,4.2748,0,4.1531,4.1606,4.1715,4.1773,4.186,4.1933,4.2017,4.2076,4.2157,4.2228,4.228,4.2345,4.2431,4.2507,4.2561,4.2654,4.2677,4.2711,4.2724,4.2706,4.2702,4.2739,4.2737,4.2751,4.275,4.275,4.2749,0,4.1544,4.162,4.1727,4.1842,4.1873,4.1931,4.2029,4.2088,4.2148,4.2238,4.2263,4.2357,4.245,4.2525,4.2646,4.2682,4.278,4.2795,4.2749,4.2756,4.2791,4.2787,4.2888,4.2906,4.2854,4.2854,4.2854,0,4.1577,4.1636,4.1758,4.181,4.1865,4.1948,4.2007,4.2082,4.2141,4.2251,4.2296,4.2393,4.2475,4.2621,4.27,4.2793,4.2811,4.2841,4.2826,4.2807,4.2813,4.2809,4.2816,4.2842,4.2842,4.2842,4.2842,0,4.1627,4.1662,4.1745,4.1842,4.191,4.199,4.207,4.211,4.22,4.2263,4.236,4.2423,4.2548,4.2644,4.2746,4.2803,4.2838,4.2847,4.2861,4.2843,4.2815,4.2832,4.2754,4.2844,4.2844,4.2844,4.2844,4.2844,4.1652,4.1708,4.1803,4.1894,4.1962,4.2037,4.2099,4.2167,4.2249,4.2357,4.2396,4.2495,4.2587,4.2728,4.2786,4.2865,4.2868,4.2888,4.2893,4.2897,4.2895,4.2802,4.2883,4.2884,4.2884,4.2884,4.2884,0,4.1705,4.177,4.1853,4.1965,4.2037,4.2064,4.2155,4.2213,4.23,4.2383,4.2463,4.2574,4.2668,4.2755,4.2853,4.2899,4.2918,4.2922,4.292,4.2933,4.2886,4.2865,4.2906,4.2906,4.2906,4.2906,4.2906,4.2906,4.1742,4.1839,4.1885,4.2017,4.2081,4.2179,4.2229,4.2298,4.2365,4.2487,4.2566,4.2622,4.2707,4.2812,4.2899,4.2923,4.2957,4.2957,4.2984,4.2939,4.2936,4.2933,4.2914,4.2964,4.2964,4.3025,4.3026,4.3026]}]]